Overview Statistics Trail Chart Weather Telemetry Raw packets
 

This is the latest recevied weather packets stored in our database for station/object KC9NPJ-13. If no packets are shown the sender has not sent any weather packets the latest 10 day(s).

<< 111 112 113 114 115 116 117 >>
Time Temp. Humidity Pressure Rain* Wind** Luminosity Snow
1787788553 30° C 65% 1012.8 hPa 0 mm - - -
1787788253 30° C 65% 1012.8 hPa 0 mm - - -
1787787953 30.56° C 64% 1012.7 hPa 0 mm - - -
1787787653 30.56° C 63% 1012.6 hPa 0 mm - - -
1787787353 30.56° C 63% 1012.5 hPa 0 mm - - -
1787787053 31.11° C 62% 1012.4 hPa 0 mm - - -
1787786753 31.11° C 62% 1012.4 hPa 0 mm - - -
1787786453 31.11° C 61% 1012.4 hPa 0 mm - - -
1787786153 31.67° C 60% 1012.5 hPa 0 mm - - -
1787785853 31.67° C 58% 1012.7 hPa 0 mm - - -
1787785554 32.22° C 59% 1012.7 hPa 0 mm - - -
1787785253 32.22° C 59% 1012.7 hPa 0 mm - - -
1787784953 32.78° C 57% 1012.8 hPa 0 mm - - -
1787784653 32.78° C 56% 1012.7 hPa 0 mm - - -
1787784353 33.33° C 55% 1012.7 hPa 0 mm - - -
1787784053 33.89° C 55% 1012.7 hPa 0 mm - - -
1787783753 33.89° C 54% 1012.6 hPa 0 mm - - -
1787783454 34.44° C 52% 1012.7 hPa 0 mm - - -
1787783154 34.44° C 52% 1012.7 hPa 0 mm - - -
1787782854 35° C 52% 1012.7 hPa 0 mm - - -
1787782554 35° C 54% 1012.6 hPa 0 mm - - -
1787782254 35° C 52% 1012.6 hPa 0 mm - - -
1787781954 35° C 53% 1012.7 hPa 0 mm - - -
1787781654 35° C 54% 1012.5 hPa 0 mm - - -
1787781354 34.44° C 55% 1012.5 hPa 0 mm - - -

* Rain latest hour (hover to see other rain measurements)
** Current wind speed in m/s (hover to see current wind gust speed)